• In Uzbekistan
  • List of Countries
  • For 7 days
  • Water Temperature
  • Weather Map
  • Weather Widgets
  • user-avatar
    Login

    Hourly Weather Bocas del Toro

    Today, 20 January, Monday

    Time Temperature Precipitation Wind Pressure Humidity
    00:00 +27°C° 0.8 mm 2 mps 759 mmHg 89%
    01:00 +27°C° 0.8 mm 2 mps 758 mmHg 89%
    02:00 +27°C° 0.5 mm 2 mps 758 mmHg 89%
    03:00 +27°C° 0.5 mm 2 mps 758 mmHg 89%
    04:00 +27°C° 0.5 mm 2 mps 758 mmHg 89%
    05:00 +27°C° 0.9 mm 2 mps 758 mmHg 89%
    06:00 +27°C° 0.9 mm 2 mps 758 mmHg 89%
    07:00 +27°C° 0.9 mm 2 mps 759 mmHg 88%
    08:00 +27°C° 1.3 mm 2 mps 759 mmHg 89%
    09:00 +27°C° 1.3 mm 2 mps 760 mmHg 89%
    10:00 +27°C° 1.3 mm 3 mps 760 mmHg 89%
    11:00 +28°C° 1.1 mm 3 mps 760 mmHg 88%
    12:00 +28°C° 1.1 mm 3 mps 760 mmHg 87%
    13:00 +29°C° 1.1 mm 3 mps 759 mmHg 85%
    14:00 +29°C° 0.5 mm 3 mps 759 mmHg 84%
    15:00 +29°C° 0.5 mm 4 mps 758 mmHg 83%
    16:00 +29°C° 0.5 mm 4 mps 758 mmHg 82%
    17:00 +28°C° 0.3 mm 4 mps 758 mmHg 84%
    18:00 +28°C° 0.3 mm 4 mps 758 mmHg 86%
    19:00 +27°C° 0.3 mm 4 mps 758 mmHg 88%
    20:00 +27°C° 0.2 mm 4 mps 759 mmHg 88%
    21:00 +27°C° 0.2 mm 4 mps 760 mmHg 88%
    22:00 +27°C° 0.2 mm 4 mps 760 mmHg 87%
    23:00 +26°C° 0.1 mm 4 mps 760 mmHg 87%

    Tomorrow, 21 January, Tuesday

    Time Temperature Precipitation Wind Pressure Humidity
    00:00 +26°C° 0.1 mm 4 mps 760 mmHg 86%
    01:00 +26°C° 0.1 mm 4 mps 760 mmHg 85%
    02:00 +26°C° 0 mm 4 mps 759 mmHg 85%
    03:00 +26°C° 0 mm 4 mps 759 mmHg 85%
    04:00 +25°C° 0 mm 4 mps 759 mmHg 85%
    05:00 +25°C° 0 mm 4 mps 759 mmHg 84%
    06:00 +25°C° 0 mm 3 mps 759 mmHg 84%
    07:00 +25°C° 0 mm 3 mps 759 mmHg 84%
    08:00 +26°C° 0.1 mm 3 mps 760 mmHg 79%
    09:00 +28°C° 0.1 mm 4 mps 760 mmHg 75%
    10:00 +29°C° 0.1 mm 4 mps 761 mmHg 70%
    11:00 +29°C° 0.3 mm 5 mps 760 mmHg 73%
    12:00 +29°C° 0.3 mm 5 mps 760 mmHg 76%
    13:00 +29°C° 0.3 mm 6 mps 759 mmHg 79%
    14:00 +29°C° 0.8 mm 6 mps 759 mmHg 80%
    15:00 +29°C° 0.8 mm 6 mps 758 mmHg 82%
    16:00 +28°C° 0.8 mm 6 mps 758 mmHg 84%
    17:00 +28°C° 0.5 mm 6 mps 758 mmHg 84%
    18:00 +27°C° 0.5 mm 6 mps 758 mmHg 85%
    19:00 +27°C° 0.5 mm 5 mps 758 mmHg 86%
    20:00 +27°C° 0.5 mm 5 mps 759 mmHg 86%
    21:00 +27°C° 0.5 mm 5 mps 760 mmHg 85%
    22:00 +26°C° 0.5 mm 4 mps 760 mmHg 84%
    23:00 +26°C° 0.5 mm 4 mps 760 mmHg 84%

    Day after tomorrow, 22 January, Wednesday

    Time Temperature Precipitation Wind Pressure Humidity
    00:00 +26°C° 0.5 mm 4 mps 760 mmHg 84%
    01:00 +26°C° 0.5 mm 4 mps 760 mmHg 83%
    02:00 +26°C° 0.2 mm 4 mps 759 mmHg 83%
    03:00 +26°C° 0.2 mm 4 mps 759 mmHg 84%
    04:00 +26°C° 0.2 mm 4 mps 759 mmHg 84%
    05:00 +26°C° 0.1 mm 5 mps 759 mmHg 83%
    06:00 +26°C° 0.1 mm 5 mps 759 mmHg 83%
    07:00 +26°C° 0.1 mm 5 mps 759 mmHg 83%
    08:00 +27°C° 0.3 mm 5 mps 760 mmHg 78%
    09:00 +28°C° 0.3 mm 5 mps 760 mmHg 73%
    10:00 +29°C° 0.3 mm 5 mps 761 mmHg 68%
    11:00 +30°C° 0.3 mm 6 mps 760 mmHg 69%
    12:00 +30°C° 0.3 mm 7 mps 760 mmHg 70%
    13:00 +30°C° 0.3 mm 7 mps 760 mmHg 71%
    14:00 +29°C° 0.2 mm 7 mps 759 mmHg 75%
    15:00 +29°C° 0.2 mm 7 mps 758 mmHg 78%
    16:00 +28°C° 0.2 mm 8 mps 758 mmHg 81%
    17:00 +28°C° 0.7 mm 7 mps 758 mmHg 85%
    18:00 +27°C° 0.7 mm 7 mps 758 mmHg 88%
    19:00 +26°C° 0.7 mm 7 mps 758 mmHg 91%
    20:00 +26°C° 0.9 mm 6 mps 759 mmHg 91%
    21:00 +26°C° 0.9 mm 6 mps 760 mmHg 91%
    22:00 +26°C° 0.9 mm 6 mps 760 mmHg 92%
    23:00 +26°C° 0.6 mm 5 mps 760 mmHg 91%

    23 January, Thursday

    Time Temperature Precipitation Wind Pressure Humidity
    00:00 +26°C° 0.6 mm 5 mps 760 mmHg 91%
    01:00 +25°C° 0.6 mm 5 mps 760 mmHg 90%
    02:00 +26°C° 0.4 mm 5 mps 759 mmHg 89%
    03:00 +26°C° 0.4 mm 4 mps 759 mmHg 88%
    04:00 +26°C° 0.4 mm 4 mps 758 mmHg 88%
    05:00 +26°C° 0.4 mm 4 mps 758 mmHg 88%
    06:00 +26°C° 0.4 mm 5 mps 759 mmHg 88%
    07:00 +26°C° 0.4 mm 5 mps 759 mmHg 88%
    08:00 +26°C° 0.4 mm 4 mps 760 mmHg 87%
    09:00 +26°C° 0.4 mm 4 mps 760 mmHg 85%
    10:00 +27°C° 0.4 mm 4 mps 760 mmHg 84%
    11:00 +27°C° 0.2 mm 4 mps 760 mmHg 82%
    12:00 +28°C° 0.2 mm 4 mps 760 mmHg 81%
    13:00 +28°C° 0.2 mm 4 mps 759 mmHg 79%
    14:00 +28°C° 0.2 mm 4 mps 758 mmHg 82%
    15:00 +28°C° 0.2 mm 4 mps 758 mmHg 85%
    16:00 +27°C° 0.2 mm 3 mps 757 mmHg 88%
    17:00 +27°C° 0.1 mm 3 mps 757 mmHg 88%
    18:00 +27°C° 0.1 mm 3 mps 758 mmHg 88%
    19:00 +27°C° 0.1 mm 2 mps 758 mmHg 88%
    20:00 +26°C° 0.1 mm 2 mps 759 mmHg 89%
    21:00 +26°C° 0.1 mm 2 mps 759 mmHg 89%
    22:00 +26°C° 0.1 mm 2 mps 760 mmHg 89%
    23:00 +26°C° 0.1 mm 2 mps 760 mmHg 89%

    24 January, Friday

    Time Temperature Precipitation Wind Pressure Humidity
    00:00 +26°C° 0.1 mm 2 mps 759 mmHg 90%
    01:00 +26°C° 0.1 mm 2 mps 759 mmHg 91%
    02:00 +26°C° 0.1 mm 2 mps 759 mmHg 91%
    03:00 +26°C° 0.1 mm 2 mps 758 mmHg 91%
    04:00 +26°C° 0.1 mm 2 mps 758 mmHg 91%
    05:00 +26°C° 0.2 mm 2 mps 758 mmHg 91%
    06:00 +26°C° 0.2 mm 2 mps 759 mmHg 91%
    07:00 +26°C° 0.2 mm 3 mps 759 mmHg 90%
    08:00 +27°C° 0.2 mm 3 mps 760 mmHg 88%
    09:00 +27°C° 0.2 mm 3 mps 760 mmHg 86%
    10:00 +28°C° 0.2 mm 3 mps 761 mmHg 85%
    11:00 +28°C° 0.3 mm 3 mps 761 mmHg 84%
    12:00 +28°C° 0.3 mm 3 mps 760 mmHg 84%
    13:00 +28°C° 0.3 mm 3 mps 760 mmHg 84%
    14:00 +28°C° 0.3 mm 3 mps 759 mmHg 85%
    15:00 +28°C° 0.3 mm 3 mps 758 mmHg 85%
    16:00 +28°C° 0.3 mm 3 mps 758 mmHg 86%
    17:00 +28°C° 0.3 mm 3 mps 758 mmHg 86%
    18:00 +27°C° 0.3 mm 3 mps 759 mmHg 87%
    19:00 +27°C° 0.3 mm 2 mps 759 mmHg 87%
    20:00 +27°C° 0.2 mm 2 mps 760 mmHg 88%
    21:00 +26°C° 0.2 mm 2 mps 760 mmHg 89%
    22:00 +26°C° 0.2 mm 2 mps 761 mmHg 89%
    23:00 +26°C° 0.3 mm 2 mps 761 mmHg 90%

    25 January, Saturday

    Time Temperature Precipitation Wind Pressure Humidity
    00:00 +26°C° 0.3 mm 2 mps 760 mmHg 90%
    01:00 +26°C° 0.3 mm 2 mps 760 mmHg 90%
    02:00 +26°C° 0.6 mm 2 mps 760 mmHg 90%
    03:00 +26°C° 0.6 mm 2 mps 759 mmHg 90%
    04:00 +26°C° 0.6 mm 2 mps 759 mmHg 90%
    05:00 +26°C° 0.7 mm 2 mps 759 mmHg 90%
    06:00 +26°C° 0.7 mm 2 mps 760 mmHg 90%
    07:00 +26°C° 0.7 mm 2 mps 760 mmHg 90%
    08:00 +26°C° 0.8 mm 2 mps 761 mmHg 90%
    09:00 +26°C° 0.8 mm 2 mps 761 mmHg 91%
    10:00 +26°C° 0.8 mm 2 mps 762 mmHg 91%
    11:00 +26°C° 0.9 mm 2 mps 761 mmHg 91%
    12:00 +26°C° 0.9 mm 2 mps 761 mmHg 91%
    13:00 +26°C° 0.9 mm 2 mps 760 mmHg 90%
    14:00 +26°C° 0.8 mm 2 mps 760 mmHg 91%
    15:00 +26°C° 0.8 mm 1 mps 759 mmHg 92%
    16:00 +26°C° 0.8 mm 1 mps 759 mmHg 92%
    17:00 +26°C° 0.8 mm 1 mps 759 mmHg 92%
    18:00 +26°C° 0.8 mm 2 mps 760 mmHg 92%
    19:00 +26°C° 0.8 mm 2 mps 760 mmHg 92%
    20:00 +26°C° 0.7 mm 2 mps 760 mmHg 91%
    21:00 +26°C° 0.7 mm 2 mps 761 mmHg 91%
    22:00 +26°C° 0.7 mm 2 mps 761 mmHg 91%
    23:00 +26°C° 0.7 mm 2 mps 761 mmHg 91%
    Show more